Location: Brno
(49.2000°N, 16.6330°E)
Time: 10:33:53
(UTC+02:00)

ISS - Pass Details

Date: 19 May 2021
Orbit: 417 x 422 km, 51.6° (Epoch: 13 June)

Event Time Altitude Azimuth Distance (km) Brightness Sun altitude
Rises 00:30:29 0° 285° (WNW) 2,369 0.3 -20.9°
Reaches altitude 10° 00:32:36 10° 289° (WNW) 1,505 -0.7 -20.9°
Maximum altitude 00:35:58 66° 12° (NNE) 464 -3.4 -21.0°
Enters shadow 00:36:27 56° 61° (ENE) 509 -3.3 -21.0°
